Location: *
(49.6619°S, 177.4603°W)
Time: 04:55:18
(UTC+00:00)

Cosmos 468 Rocket - Pass Details

Date: 31 January 2023
Orbit: 744 x 778 km, 74.0° (Epoch: 01 April)

Event Time Altitude Azimuth Distance (km) Brightness Sun altitude
Rises 08:43:13 0° 358° (N) 3,188 6.8 -9.7°
Reaches altitude 10° 08:45:38 10° 3° (N) 2,275 6.0 -10.0°
Maximum altitude 08:50:32 45° 75° (ENE) 1,029 4.3 -10.6°
Drops below altitude 10° 08:55:32 10° 146° (SE) 2,320 6.6 -11.2°
Sets 08:58:00 0° 152° (SSE) 3,258 7.5 -11.5°
